Regional Weather Roundup
Issued by NWS Wakefield, VA

Home | Current Version | Previous Version | Graphics & Text | Print | Product List | Glossary On
Versions: 1 2 3 4 5 6 7 8 9 10 11 12 13 14 15 16 17 18 19 20 21 22 23 24 25 26 27
000
ASUS41 KAKQ 280415
RWRAKQ

REGIONAL WEATHER ROUNDUP
NATIONAL WEATHER SERVICE WAKEFIELD VA
1200 AM EDT TUE MAR 28 2017

Note: "fair" indicates few or no clouds below 12,000 feet with no
significant weather and/or obstructions to visibility. * = Denotes
station may not report precipitation (e.g., rain,snow,etc.),
thunder or fog.

VAZ042-051-052>054-056-280500-
NORTHERN VIRGINIA

CITY           SKY/WX    TMP DP  RH WIND       PRES   REMARKS
WASH NATIONAL  CLOUDY    62  56  80 CALM      29.92S
DULLES         CLOUDY    60  57  89 S3        29.91S
FORT BELVOIR   MOCLDY    61  55  79 CALM      29.91S
QUANTICO       MOCLDY    63  56  78 SW8       29.92S
FREDERICKSBRG* MOCLDY    69  58  68 S10       29.91S
STAFFORD*      CLOUDY    66  57  71 S3        29.96S
WARRENTON      MOCLDY    59  54  82 CALM      29.91S
CULPEPER*      CLOUDY    59  59  99 CALM      29.92S
MANASSAS*        N/A    N/A N/A N/A SE3       29.91F
LEESBURG*      CLOUDY    63  61  94 CALM      29.92S
WINCHESTER     CLOUDY    54  52  94 SW3       29.91R
FRONT ROYAL*   PTCLDY    59  55  88 S5        29.90S
LURAY*         LGT RAIN  59  59 100 CALM      29.92F
$$

VAZ048-049-060>072-079>083-280500-
CENTRAL AND SOUTH CENTRAL VIRGINIA

CITY           SKY/WX    TMP DP  RH WIND       PRES   REMARKS
RICHMOND       CLOUDY    65  57  75 S8        29.94S
CHESTERFIELD*  FAIR      66  45  45 S8        29.96S
PETERSBURG*    CLOUDY    64  55  74 CALM      29.96R
HANOVER        CLOUDY    67  55  65 S6        29.95S
TAPPAHANNOCK*  CLOUDY    67  50  54 S3        29.94F
QUINTON*       FAIR      66  58  74 CALM      29.93F
CHARLOTTSVILLE CLOUDY    66  58  75 S5        29.92S
GORDONSVILLE*  MOCLDY    58  56  91 CALM      29.92S
ORANGE*        CLOUDY    63  55  77 CALM      29.94S
LOUISA*        CLOUDY    70  61  73 S3        29.92S
BUMPASS*       FAIR      62  57  83 S7        29.94R
FARMVILLE*     MOCLDY    65  59  81 CALM      29.93S
CREWE*         FAIR      65  61  86 S3        29.94F
FORT PICKETT*  FAIR      65  54  68 S8        29.95F
CHASE CITY*    FAIR      66  57  72 S3        29.96R
CLARKSVILLE*   FAIR      66  57  72 S6        29.95S
SOUTH HILL*    CLOUDY    64  58  79 S8        30.02R
LAWRENCEVILLE* FAIR      64  56  73 S6        29.96S
EMPORIA*       CLOUDY    64  54  68 SE6       29.98F
$$

VAZ088>098-280500-
SOUTHEAST VIRGINIA

CITY           SKY/WX    TMP DP  RH WIND       PRES   REMARKS
NORFOLK        CLOUDY    66  53  63 SW13      29.97S
VIRGINIA BEACH MOCLDY    64  52  64 SW13      29.97S
NORFOLK NAVAL  CLOUDY    67  52  58 S9        29.98S
WEST POINT*    CLOUDY    65  54  66 SE7       29.96F
SALUDA*        FAIR      63  56  78 S5        29.95F
NEWPORT NEWS   CLOUDY    67  53  61 SW14      29.97S
LANGLEY AFB    CLOUDY    67  54  62 SW14      29.96F
FORT EUSTIS    CLOUDY    65  54  67 VRB6      29.94S
WILLIAMSBURG*  CLOUDY    66  55  68 CALM      29.97F
HR EXEC AP*    FAIR      66  52  59 SW9       29.97R
FRANKLIN*      CLOUDY    65  53  65 S10       29.98F
US460-WAKEFLD  CLOUDY    65  55  70 S6        29.97S
$$

VAZ020-022-025-037-045-280500-
WEST CENTRAL AND SOUTHWEST VIRGINIA

CITY           SKY/WX    TMP DP  RH WIND       PRES   REMARKS
STAUNTON*      MOCLDY    57  55  93 CALM      29.95F
WAYNESBORO*    CLOUDY    60  59  97 S3        29.94F
HOT SPRINGS VA CLOUDY    55  50  82 CALM      30.01F
LYNCHBURG      MOCLDY    63  57  81 S5        29.94F
DANVILLE       PTCLDY    66  59  78 S5        29.95S
SOUTH BOSTON*  FAIR      66  57  74 CALM      29.94F
MARTINSVILLE   FOG       54  53  98 CALM      29.98S VSB 1
ROANOKE        MOCLDY    66  53  63 E3        29.95S
BLACKSBURG     MOCLDY    56  52  86 CALM      30.00S
DUBLIN*        CLEAR     58  52  83 CALM      29.98S
MARION*        CLOUDY    63  52  66 CALM      29.99S
HILLSVILLE*    MOCLDY    58  53  83 CALM      29.98S
RICHLANDS*     TSTM      58  52  80 W20G26    30.00R
WISE*          RAIN      55  55 100 SW7       29.99F
ABINGDON*      RAIN      59  56  88 NW17G24   30.00R
$$

MDZ021>025-VAZ099-100-280500-
SOUTHERN MARYLAND AND THE DELMARVA PENINSULA

CITY           SKY/WX    TMP DP  RH WIND       PRES   REMARKS
PATUXENT RIVER CLOUDY    66  58  75 SW7       29.93S
BAY BRIDGE APT CLOUDY    54  50  87 CALM      29.92F FOG
LEONARDTOWN    CLOUDY    66  55  68 S5        29.95S
DOVER          CLOUDY    59  59 100 S8        29.92F
GEORGETOWN     CLOUDY    60  52  74 S7        29.95F
EASTON         PTCLDY    66  55  68 S8        29.96F
CAMBRIDGE      CLEAR     61  54  77 S7        29.94S
SALISBURY      CLOUDY    58  53  84 S5        29.95F
OCEAN CITY     CLOUDY    52  49  89 S5        29.97F
WALLOPS ISLAND PTCLDY    54  52  93 S9        29.97F
ACCOMACK*      PTCLDY    59  53  79 S9        29.97S
$$

NCZ012>017-030>032-280500-
NORTH CENTRAL AND EASTERN NORTH CAROLINA

CITY           SKY/WX    TMP DP  RH WIND       PRES   REMARKS
ROANOKE RAPIDS FAIR      64  55  72 S12       29.98S
RALEIGH        MOCLDY    68  54  60 S13       29.98S
ELIZABETH CITY CLEAR     62  54  74 SW12      30.01R
AHOSKIE*         N/A     64  53  68 S6        29.99F
EDENTON*       CLEAR     63  55  76 S7        30.01F
CURRITUCK*     CLEAR     64  54  70 S5        30.01R
KILL DEVIL HLS NOT AVBL
MANTEO         CLEAR     61  57  87 SW9       30.02F
CAPE HATTERAS  CLEAR     68  59  73 SW9       30.04S HAZE
TARBORO*       NOT AVBL
GOLDSBORO      CLOUDY    66  58  74 S7        30.00S
WASHINGTON     MOCLDY    63  55  74 SW5       30.03S
GREENVILLE     MOCLDY    63  55  77 S7        30.03F
NEW BERN       CLEAR     61  58  90 S6        30.04S
WILMINGTON     MOCLDY    63  57  81 S3        30.04S
$$

VAZ048-280500-
ELSEWHERE

CITY           SKY/WX    TMP DP  RH WIND       PRES   REMARKS
HARRISBURG PA  CLOUDY    52  50  93 CALM      29.94S
BALTIMORE      CLOUDY    58  56  93 CALM      29.92F
ANNAPOLIS      CLOUDY    58  53  84 S6        29.92F
ANDREWS AFB    CLOUDY    62  55  77 S5        29.91F
PHILADELPHIA   CLOUDY    53  50  89 NE7       29.97S FOG
HENDERSON NC   MOCLDY    64  54  70 S9        29.97S
GREENSBORO     MOCLDY    66  60  81 S10       29.95S
ROCKY MOUNT    MOCLDY    65  56  72 S8        30.00F
$$

VAZ100-280500-
MARINE

STATION/POSITION TIME  TEMP    WIND        PRES    WAVE   SWELL
                       AIR SEA DIR/SP/G            HT/PER HT/PER
                 (UTC) (F)     (DEG/KT/KT) (MB)    (FT/S) (FT/S)
CAPE MAY NJ      0348   52 46  140/  6/  8 1014.0F
LEWES DE         0348   60 46  180/  4/  6 1014.0F
OCEAN-CITY-INLET 0348   48 45  210/  9/  9 1015.3F
WACHAPREAGUE VA  0348   56 56  220/  6/  8 1014.7S
THOMAS POINT MD  0400   52 47  210/  9/  9   N/A
GOOSES REEF MD   0350   51     160/ 12/ 12 1014.0F
COVE POINT MD    0348   54     190/ 10/ 11 1014.2F
SOLOMONS ISLAND  0348          210/  7/  9   N/A
BISHOPS HEAD MD  0348   53 55  150/  9/  9 1014.3S
PINEY POINT MD   0348          130/  7/  8   N/A
POTOMAC MD       0350   51     160/  8/ 10 1013.1F
CAMBRIDGE MD     0348   61 46  160/  7/ 10 1012.9F
LEWISETTA VA     0348   66 53  200/  6/  7 1013.4F
RAPPAHANNOCK LGT 0348          180/ 15/ 16 1015.1S
STINGRAY PT      0350   54     180/  4/  4 1014.4F
YORK RVR RNG VA  0348   62     220/ 18/ 20 1013.8F
YORKTOWN VA      0348   68 51  200/ 10/ 15 1014.0F
JAMESTOWN VA     0350   65     170/ 10/ 12   N/A
DOMINION TERM VA 0348   62     210/ 12/ 13 1014.8F
KIPTOPEKE VA     0348      51  160/  7/  8   N/A
CHES BAY BRIDGE  0348   64 48  210/ 14/ 17 1014.7S
CAPE HENRY VA    0348   66     200/  9/ 14   N/A
WILLOUBY STN VA  0348   67     200/ 14/ 17 1015.7R
S CRANEY ISL VA  0348   65     200/ 10/ 13 1014.8S
CAPE HENRY BUOY  0342      51                N/A     3/ 8   2/18
CAPE CHARLES BUO 0351      50                N/A     3/ 9   2/11
OFFSHORE WE BUOY 0351      51                N/A     3/11   2/11
64NM E OF VA BCH 0350   55 49  190/ 10/ 12 1016.0F   4/10   3/10
DUCK PIER NC     0348   64 49  190/ 13/ 17 1015.4F
44100 DUCK FRF   0335      52                N/A     3/11   2/11
44056 DUCK FRF   0330      51                N/A     3/ 8   2/18
OREGON INLET NC  0348          180/  9/ 11   N/A
HATTERAS NC      0348   67 62  200/  6/  9 1016.8F
DIAMOND SHLS NC  0350   71 74  190/ 14/ 17 1017.3F   4/ 9   3/ 9
CAPE LOOKOUT NC  0300   65     170/  6/  7 1017.3F
$$




USA.gov is the U.S. government's official web portal to all federal, state and local government web resources and services.